Saint Michaels, AZ

4:31 PM MST on February 05, 2016 (GMT -0700)
Window Rock

Weather History for KRQE - March, 2014

Change the Weather History Date:

Thursday, March 13, 2014

  Actual Average Record
Temperature  
Mean Temperature 40 °F -  
Max Temperature 61 °F 51 °F 70 °F (1989)
Min Temperature 19 °F 23 °F -5 °F (2006)
Degree Days  
Heating Degree Days 26    
Moisture  
Dew Point 18 °F    
Average Humidity 46    
Maximum Humidity 71    
Minimum Humidity 19    
Precipitation  
Precipitation 0.00 in - - ()
Sea Level Pressure  
Sea Level Pressure 29.98 in    
Wind  
Wind Speed 2 mph (WSW)    
Max Wind Speed 15 mph    
Max Gust Speed 21 mph    
Visibility 10 miles    
Events      
Averages and records for this station are not official NWS values.
T = Trace of Precipitation, MM = Missing Value Source: NWS Daily Summary

Daily Weather History Graph

Daily Weather History Graph

Search for Another Location

Airport or City:

Trip Planner

Search our weather history database for the weather conditions in past years. The results will help you decide how hot, cold, wet, or windy it might be!

Date:

Astronomy

Mar. 13, 2014 Rise Set
Actual Time 7:29 AM MDT 7:22 PM MDT
Civil Twilight 7:04 AM MDT 7:47 PM MDT
Nautical Twilight 6:34 AM MDT 8:17 PM MDT
Astronomical Twilight 6:04 AM MDT 8:47 PM MDT
Moon 4:55 PM MDT (3/13) 5:33 AM MDT (3/13)
Length of Visible Light 12h 43m
Length of Day
11h 52m
Waxing Gibbous, 92% of the Moon is Illuminated
Mar 13
Waxing Gibbous
Mar 16
Full
Mar 23
Last Quarter
Mar 30
New
Apr 7
First Quarter

Hourly Weather History & Observations

Time (MDT) Temp. Windchill Dew Point Humidity Pressure Visibility Wind Dir Wind Speed Gust Speed Precip Events Conditions
12:53 AM 28.0 °F - 12.0 °F 51% 30.11 in 10.0 mi Calm Calm - N/A   Clear
1:53 AM 28.0 °F - 12.0 °F 51% 30.11 in 10.0 mi Calm Calm - N/A   Clear
2:53 AM 23.0 °F - 10.0 °F 58% 30.11 in 10.0 mi Calm Calm - N/A   Clear
3:53 AM 23.0 °F - 10.0 °F 58% 30.08 in 10.0 mi Calm Calm - N/A   Clear
4:53 AM 21.0 °F - 10.0 °F 63% 30.08 in 10.0 mi Calm Calm - N/A   Clear
5:53 AM 21.0 °F - 10.9 °F 65% 30.08 in 10.0 mi Calm Calm - N/A   Clear
6:53 AM 19.9 °F - 10.9 °F 68% 30.09 in 10.0 mi Calm Calm - N/A   Clear
7:53 AM 21.0 °F - 12.9 °F 71% 30.11 in 10.0 mi Calm Calm - N/A   Clear
8:53 AM 28.9 °F - 15.1 °F 56% 30.09 in 10.0 mi Calm Calm - N/A   Clear
9:53 AM 41.0 °F - 17.1 °F 38% 30.03 in 10.0 mi Calm Calm - N/A   Clear
10:53 AM 48.0 °F - 18.0 °F 30% 30.00 in 10.0 mi Calm Calm - N/A   Clear
11:53 AM 54.0 °F - 18.0 °F 24% 29.98 in 10.0 mi South 5.8 mph - N/A   Clear
12:53 PM 57.0 °F - 17.1 °F 21% 29.93 in 10.0 mi Variable 5.8 mph - N/A   Mostly Cloudy
1:53 PM 57.9 °F - 19.0 °F 22% 29.89 in 10.0 mi Variable 3.5 mph - N/A   Mostly Cloudy
2:53 PM 57.9 °F - 19.0 °F 22% 29.88 in 10.0 mi West 11.5 mph 20.7 mph N/A   Overcast
3:53 PM 57.9 °F - 19.0 °F 22% 29.86 in 10.0 mi West 12.7 mph - N/A   Overcast
4:53 PM 60.1 °F - 19.9 °F 21% 29.83 in 10.0 mi WNW 6.9 mph - N/A   Overcast
5:53 PM 59.0 °F - 16.0 °F 19% 29.85 in 10.0 mi WSW 15.0 mph - N/A   Mostly Cloudy
6:53 PM 54.0 °F - 18.0 °F 24% 29.88 in 10.0 mi WSW 9.2 mph - N/A   Mostly Cloudy
7:53 PM 48.0 °F - 28.9 °F 48% 29.95 in 10.0 mi West 12.7 mph - N/A   Overcast
8:53 PM 44.1 °F 42.5 °F 30.0 °F 58% 29.92 in 10.0 mi NW 3.5 mph - 0.00 in   Scattered Clouds
9:53 PM 39.9 °F - 28.9 °F 65% 29.90 in 10.0 mi Calm Calm - N/A   Clear
10:53 PM 37.9 °F 35.5 °F 28.9 °F 70% 29.89 in 10.0 mi South 3.5 mph - N/A   Partly Cloudy
11:53 PM 37.9 °F 34.4 °F 28.9 °F 70% 29.87 in 10.0 mi South 4.6 mph - N/A   Overcast